| time (UTC) | temp F | wind direction | speed MPH | gust MPH | rain 1hr in | rain 24hr in | rain mn in | humidity % | barometer mb |
| 20260831001505 | 56 | 132 | 6.0 | 9.0 | 0.01 | 0.25 | 0.01 | 99 | 1001.9 |
| 20260831000026 | 56 | 126 | 6.0 | 9.0 | 0.01 | 0.25 | 0.01 | 99 | 1002.0 |
| 20260830234505 | 56 | 118 | 3.0 | 7.0 | 0.01 | 0.25 | 0.01 | 99 | 1002.1 |
| 20260830233005 | 56 | 119 | 2.0 | 4.0 | 0.00 | 0.24 | 0.00 | 99 | 1002.1 |
| 20260830231505 | 56 | 123 | 3.0 | 7.0 | 0.00 | 0.24 | 0.00 | 99 | 1002.2 |
| 20260830230005 | 56 | 126 | 4.0 | 8.0 | 0.00 | 0.24 | 0.00 | 99 | 1002.2 |
| 20260830224505 | 56 | 131 | 4.0 | 8.0 | 0.00 | 0.24 | 0.24 | 98 | 1002.3 |
| 20260830223026 | 55 | 131 | 4.0 | 9.0 | 0.00 | 0.24 | 0.24 | 98 | 1002.4 |
| 20260830221505 | 55 | 121 | 6.0 | 9.0 | 0.00 | 0.24 | 0.24 | 98 | 1002.4 |
| 20260830220005 | 55 | 116 | 7.0 | 10.0 | 0.00 | 0.24 | 0.24 | 98 | 1002.5 |
| 20260830214526 | 55 | 115 | 4.0 | 7.0 | 0.01 | 0.24 | 0.24 | 98 | 1002.5 |
| 20260830213005 | 55 | 112 | 4.0 | 7.0 | 0.01 | 0.24 | 0.24 | 98 | 1002.6 |
| 20260830211505 | 55 | 109 | 4.0 | 9.0 | 0.01 | 0.24 | 0.24 | 98 | 1002.7 |
| 20260830210026 | 55 | 111 | 5.0 | 10.0 | 0.01 | 0.24 | 0.24 | 98 | 1002.8 |
| 20260830204505 | 55 | 119 | 8.0 | 12.0 | 0.00 | 0.23 | 0.23 | 98 | 1002.7 |
| 20260830203005 | 55 | 121 | 9.0 | 13.0 | 0.00 | 0.23 | 0.23 | 98 | 1002.7 |
| 20260830201526 | 55 | 121 | 8.0 | 11.0 | 0.00 | 0.23 | 0.23 | 98 | 1002.8 |
| 20260830200005 | 55 | 121 | 9.0 | 13.0 | 0.00 | 0.23 | 0.23 | 98 | 1002.8 |
| 20260830194504 | 55 | 120 | 9.0 | 12.0 | 0.01 | 0.23 | 0.23 | 98 | 1002.9 |
| 20260830193005 | 55 | 125 | 9.0 | 12.0 | 0.04 | 0.23 | 0.23 | 98 | 1002.9 |
| 20260830191505 | 55 | 125 | 8.0 | 12.0 | 0.09 | 0.23 | 0.23 | 98 | 1002.9 |
| 20260830190005 | 55 | 132 | 11.0 | 14.0 | 0.14 | 0.23 | 0.23 | 97 | 1002.9 |
| 20260830184525 | 55 | 137 | 8.0 | 13.0 | 0.13 | 0.22 | 0.22 | 97 | 1003.0 |
| 20260830183004 | 55 | 135 | 10.0 | 16.0 | 0.11 | 0.19 | 0.19 | 97 | 1003.0 |
| 20260830181505 | 56 | 131 | 10.0 | 14.0 | 0.07 | 0.14 | 0.14 | 97 | 1003.0 |
| 20260830180005 | 56 | 129 | 10.0 | 14.0 | 0.03 | 0.09 | 0.09 | 97 | 1003.0 |
| 20260830174525 | 56 | 126 | 10.0 | 14.0 | 0.05 | 0.09 | 0.09 | 97 | 1002.9 |
| 20260830173026 | 57 | 122 | 7.0 | 10.0 | 0.05 | 0.08 | 0.08 | 97 | 1003.1 |
| 20260830171505 | 56 | 125 | 8.0 | 11.0 | 0.05 | 0.07 | 0.07 | 97 | 1003.1 |
| 20260830170004 | 56 | 130 | 7.0 | 11.0 | 0.04 | 0.06 | 0.06 | 96 | 1003.1 |
| 20260830164526 | 57 | 132 | 9.0 | 14.0 | 0.03 | 0.04 | 0.04 | 95 | 1003.2 |
| 20260830163004 | 57 | 130 | 11.0 | 15.0 | 0.02 | 0.03 | 0.03 | 95 | 1003.2 |
| 20260830161504 | 58 | 129 | 10.0 | 15.0 | 0.01 | 0.02 | 0.02 | 94 | 1003.2 |
| 20260830160004 | 58 | 131 | 9.0 | 13.0 | 0.01 | 0.02 | 0.02 | 94 | 1003.2 |
| 20260830154504 | 58 | 133 | 11.0 | 14.0 | 0.00 | 0.01 | 0.01 | 93 | 1003.2 |
| 20260830153004 | 58 | 133 | 11.0 | 16.0 | 0.00 | 0.01 | 0.01 | 92 | 1003.2 |
| 20260830151504 | 58 | 132 | 13.0 | 18.0 | 0.00 | 0.01 | 0.01 | 91 | 1003.3 |
| 20260830150004 | 58 | 136 | 12.0 | 16.0 | 0.00 | 0.01 | 0.01 | 91 | 1003.3 |
| 20260830144504 | 59 | 135 | 10.0 | 16.0 | 0.00 | 0.01 | 0.01 | 91 | 1003.4 |
| 20260830143004 | 59 | 133 | 9.0 | 14.0 | 0.00 | 0.01 | 0.01 | 91 | 1003.6 |
| 20260830141504 | 60 | 129 | 9.0 | 12.0 | 0.00 | 0.01 | 0.01 | 91 | 1003.5 |
| 20260830140004 | 59 | 132 | 11.0 | 15.0 | 0.00 | 0.01 | 0.01 | 92 | 1003.6 |
| 20260830134525 | 59 | 126 | 10.0 | 13.0 | 0.00 | 0.01 | 0.01 | 91 | 1003.7 |
| 20260830133004 | 60 | 127 | 10.0 | 13.0 | 0.00 | 0.01 | 0.01 | 91 | 1003.7 |
| 20260830131504 | 60 | 126 | 9.0 | 13.0 | 0.00 | 0.01 | 0.01 | 91 | 1003.7 |
| 20260830130005 | 59 | 132 | 8.0 | 11.0 | 0.00 | 0.01 | 0.01 | 91 | 1003.7 |
| 20260830124525 | 59 | 122 | 7.0 | 11.0 | 0.00 | 0.01 | 0.01 | 91 | 1003.8 |
| 20260830123004 | 60 | 116 | 5.0 | 11.0 | 0.00 | 0.01 | 0.01 | 91 | 1004.0 |
| 20260830121504 | 59 | 123 | 6.0 | 9.0 | 0.00 | 0.01 | 0.01 | 94 | 1004.0 |
| 20260830120004 | 58 | 125 | 8.0 | 12.0 | 0.00 | 0.01 | 0.01 | 93 | 1003.8 |
| 20260830114525 | 58 | 115 | 7.0 | 10.0 | 0.00 | 0.01 | 0.01 | 94 | 1003.9 |
| 20260830113004 | 58 | 88 | 4.0 | 10.0 | 0.00 | 0.01 | 0.01 | 95 | 1004.0 |
| 20260830111504 | 58 | 92 | 3.0 | 8.0 | 0.00 | 0.01 | 0.01 | 95 | 1004.0 |
| 20260830110025 | 58 | 107 | 5.0 | 9.0 | 0.00 | 0.01 | 0.01 | 95 | 1004.1 |
| 20260830104504 | 58 | 118 | 5.0 | 10.0 | 0.00 | 0.01 | 0.01 | 95 | 1004.1 |
| 20260830103004 | 58 | 129 | 5.0 | 11.0 | 0.00 | 0.01 | 0.01 | 97 | 1004.1 |
| 20260830101504 | 57 | 144 | 3.0 | 8.0 | 0.00 | 0.01 | 0.01 | 97 | 1004.2 |
| 20260830100004 | 56 | 141 | 4.0 | 9.0 | 0.00 | 0.01 | 0.01 | 98 | 1004.3 |
| 20260830094504 | 56 | 137 | 4.0 | 8.0 | 0.00 | 0.01 | 0.01 | 98 | 1004.2 |
| 20260830093004 | 56 | 133 | 5.0 | 8.0 | 0.00 | 0.01 | 0.01 | 98 | 1004.2 |
| 20260830091525 | 56 | 129 | 6.0 | 9.0 | 0.00 | 0.01 | 0.01 | 98 | 1004.3 |
| 20260830090005 | 55 | 111 | 2.0 | 3.0 | 0.00 | 0.01 | 0.01 | 98 | 1004.2 |
| 20260830084504 | 56 | 111 | 3.0 | 7.0 | 0.00 | 0.01 | 0.01 | 99 | 1004.2 |
| 20260830083025 | 56 | 106 | 5.0 | 8.0 | 0.00 | 0.02 | 0.01 | 98 | 1004.2 |
| 20260830081525 | 55 | 109 | 4.0 | 8.0 | 0.00 | 0.02 | 0.01 | 98 | 1004.1 |
| 20260830080004 | 55 | 106 | 3.0 | 7.0 | 0.00 | 0.02 | 0.01 | 99 | 1004.1 |
| 20260830074504 | 55 | 101 | 3.0 | 4.0 | 0.00 | 0.02 | 0.01 | 99 | 1004.2 |
| 20260830073004 | 54 | 106 | 4.0 | 5.0 | 0.00 | 0.02 | 0.01 | 99 | 1004.1 |
| 20260830071504 | 54 | 116 | 3.0 | 4.0 | 0.00 | 0.02 | 0.01 | 99 | 1004.1 |
| 20260830070004 | 54 | 131 | 2.0 | 2.0 | 0.00 | 0.02 | 0.01 | 99 | 1004.0 |
| 20260830064504 | 54 | 131 | 2.0 | 3.0 | 0.00 | 0.03 | 0.01 | 99 | 1004.1 |
| 20260830063004 | 54 | 136 | 2.0 | 3.0 | 0.00 | 0.04 | 0.01 | 99 | 1004.1 |
| 20260830061504 | 54 | 150 | 2.0 | 3.0 | 0.00 | 0.04 | 0.01 | 99 | 1004.0 |
| 20260830060004 | 54 | 155 | 1.0 | 2.0 | 0.00 | 0.05 | 0.01 | 99 | 1004.0 |
| 20260830054504 | 54 | 155 | 1.0 | 3.0 | 0.00 | 0.07 | 0.01 | 99 | 1003.9 |
| 20260830053004 | 54 | 155 | 2.0 | 3.0 | 0.00 | 0.09 | 0.01 | 98 | 1003.8 |
| 20260830051504 | 54 | 0 | 0.0 | 0.0 | 0.00 | 0.12 | 0.01 | 98 | 1003.7 |
| 20260830050004 | 54 | 98 | 0.0 | 2.0 | 0.00 | 0.14 | 0.01 | 98 | 1003.6 |
| 20260830044525 | 54 | 98 | 1.0 | 2.0 | 0.00 | 0.16 | 0.01 | 98 | 1003.7 |
| 20260830043004 | 54 | 98 | 1.0 | 2.0 | 0.00 | 0.20 | 0.01 | 99 | 1003.8 |
| 20260830041504 | 54 | 98 | 1.0 | 2.0 | 0.00 | 0.24 | 0.01 | 98 | 1003.8 |
| 20260830040004 | 54 | 98 | 1.0 | 2.0 | 0.00 | 0.27 | 0.01 | 98 | 1003.8 |
| 20260830034504 | 54 | 95 | 0.0 | 2.0 | 0.00 | 0.27 | 0.01 | 98 | 1003.9 |
| 20260830033004 | 54 | 0 | 0.0 | 0.0 | 0.00 | 0.27 | 0.01 | 99 | 1003.8 |
| 20260830031504 | 54 | 0 | 0.0 | 0.0 | 0.00 | 0.27 | 0.01 | 98 | 1003.9 |
| 20260830030025 | 54 | 0 | 0.0 | 0.0 | 0.01 | 0.27 | 0.01 | 98 | 1003.9 |
| 20260830024504 | 54 | 0 | 0.0 | 0.0 | 0.01 | 0.28 | 0.01 | 98 | 1003.9 |
| 20260830023025 | 54 | 0 | 0.0 | 0.0 | 0.01 | 0.28 | 0.01 | 98 | 1003.8 |
| 20260830021504 | 54 | 0 | 0.0 | 0.0 | 0.01 | 0.28 | 0.01 | 98 | 1003.7 |
| 20260830020004 | 54 | 0 | 0.0 | 0.0 | 0.00 | 0.27 | 0.00 | 98 | 1003.9 |
| 20260830014504 | 54 | 0 | 0.0 | 0.0 | 0.00 | 0.29 | 0.00 | 98 | 1003.9 |
| 20260830013025 | 54 | 0 | 0.0 | 0.0 | 0.00 | 0.31 | 0.00 | 99 | 1003.9 |
| 20260830011504 | 54 | 0 | 0.0 | 0.0 | 0.00 | 0.32 | 0.00 | 98 | 1003.8 |
| 20260830010004 | 54 | 0 | 0.0 | 0.0 | 0.00 | 0.35 | 0.00 | 98 | 1003.8 |
| 20260830004525 | 54 | 0 | 0.0 | 0.0 | 0.00 | 0.38 | 0.00 | 98 | 1003.7 |
| 20260830003004 | 54 | 0 | 0.0 | 0.0 | 0.00 | 0.40 | 0.00 | 98 | 1003.7 |